weather.gov     
National Weather Service

Terminal Aerodrome Forecast
NWS Homepage
This page is being discontinued on March 12, 2014.
The same data is available at this site. Please update your bookmarks.
Thank you, and we apologize for the inconvenience.
Please send an email to SR-SRH.Webmaster@noaa.gov with any concerns.


Current Version
Previous Version:    01  02  03  04  05  06  07  08  09  10  11  12  13  14  15  16  17  18  19  20  21  22  23  24  25  26  27  28  29  30  
   31  32  33  34  35  36  37  38  39  40  41  
[Printable]
627
FTUS41 KRLX 261500 AAA
TAFBKW
TAF AMD
KBKW 261501Z 2615/2712 00000KT 3/4SM -SN BR FEW003 OVC015
      TEMPO 2615/2617 2SM -SHSN BKN008
     FM261900 29004KT 2SM -SHSN BR OVC009
     FM262300 VRB03KT 4SM BR OVC025
     FM270800 00000KT 3SM -SHSN BR BKN020
     FM271000 00000KT 2SM -SHSN BR BKN020=


U.S. Dept. of Commerce
NOAA National Weather Service
1325 East West Highway
Silver Spring, MD 20910
E-mail: w-nws.webmaster@noaa.gov
Page last modified: May 16, 2007
NATIONAL WEATHER SERVICE: for Safety, for Work, for Fun - FOR LIFE